[[{"header":{"parameterUnit":"m.s-1","parameterCategory":1,"la1":30.2991,"la2":30.254,"lo1":-89.0895,"lo2":-89.0444,"dy":0.0017,"dx":0.0017,"nx":28,"ny":28,"refTime":"2026-02-15T03:00:00:Z","depth":0,"parameterNumber":2,"parameterNumberName":"U-component_of_WINDS"},"data":[0,0,0,0,0,0,0,0,0,0,0,0,0,0,0,0,0,0,0,0,0,0,0,0,0,0,0,0,0,0,0,0,0,0,0,0,0,0,0,0,0,0,0,0,0,0,0,0,0,0,0,0,0,0,0,0,0,0,3.8355,3.8356,0,3.846,3.8462,3.8463,3.8465,3.8464,3.8463,3.8461,3.8569,3.8573,3.8577,0,0,0,0,0,0,0,0,0,0,0,0,0,3.816,3.8163,3.8355,3.8357,3.8358,3.846,3.8462,3.8463,3.8465,3.8464,3.8462,3.8461,3.8568,3.8573,3.8578,0,0,0,0,0,0,0,0,0,0,0,0,0,3.8253,3.8164,3.8355,3.8371,3.8374,3.846,3.8462,3.8463,3.8466,3.8464,3.8462,3.846,3.8566,3.8572,3.8578,3.8655,0,0,3.8597,3.86,0,0,0,0,0,0,0,0,3.8247,3.826,3.8368,3.837,3.8373,3.8448,3.8432,3.8528,3.8466,3.8431,3.8461,3.8459,3.853,3.8539,3.8563,3.866,3.8665,3.8598,3.8601,3.8604,3.8606,0,0,0,0,0,0,0,3.8241,3.8255,3.8397,3.8369,3.8373,3.8375,3.8386,3.845,3.849,3.8434,3.8434,3.8447,3.8532,3.8558,3.8566,3.8666,3.8597,3.8603,3.8607,3.8609,3.8837,3.8839,0,0,0,0,0,0,3.8231,3.825,3.8393,3.84,3.8304,3.838,3.8392,3.8426,3.849,3.8497,3.8448,3.8446,3.8548,3.8559,3.857,3.8667,3.8604,3.861,3.8613,3.8834,3.8837,3.884,0,0,0,0,0,0,3.8227,3.8244,3.8389,3.8325,3.8344,3.8385,3.8423,3.8429,3.8455,3.8501,3.8508,3.8467,3.8547,3.8561,3.8635,3.8671,3.8612,3.8618,3.8831,3.8835,3.8838,3.886,0,0,0,0,0,0,3.8221,3.8242,3.8271,3.8326,3.8347,3.8452,3.8425,3.8432,3.8465,3.8464,3.852,3.8528,3.8546,3.8626,3.8641,3.8678,3.8623,3.8828,3.8833,3.8837,3.8856,3.8863,3.887,0,0,0,0,0,3.8214,3.8272,3.8272,3.8289,3.8384,3.8454,3.8466,3.8486,3.8468,3.8498,3.8528,3.8526,3.8664,3.8633,3.8651,3.869,3.8826,3.8832,3.8837,3.8853,3.8862,3.887,0,0,0,0,0,0,3.8218,3.8279,3.828,3.8357,3.84,3.8454,3.8492,3.8495,3.8544,3.8541,3.8564,3.8577,3.8651,3.8678,3.8642,3.877,3.8743,3.8752,3.875,3.8759,3.8765,3.8758,3.8628,0,0,0,0,0,3.8228,3.828,3.833,3.8393,3.8415,3.845,3.8481,3.8493,3.8539,3.8557,3.8593,3.8638,3.8692,3.8727,3.8778,3.886,3.8874,3.8896,3.8903,3.8908,3.8916,3.8965,3.8976,3.8857,3.8857,3.8857,0,0,3.8249,3.8289,3.8319,3.8395,3.843,3.8484,3.8465,3.8522,3.8563,3.8566,3.8638,3.8666,3.8718,3.8798,3.8834,3.8822,3.8953,3.8915,3.8919,3.8924,3.8972,3.8983,3.8993,3.8861,3.886,3.8859,0,0,3.8315,3.8349,3.8407,3.8444,3.8498,3.8521,3.8535,3.859,3.8609,3.8682,3.8687,3.8736,3.8828,3.8866,3.8897,3.8983,3.8984,3.8999,3.9036,3.9083,3.9093,3.9101,3.9134,3.9146,3.9007,3.9007,3.9007,0,3.8334,3.8415,3.8437,3.8495,3.853,3.8536,3.8597,3.8631,3.8699,3.8723,3.8709,3.8827,3.8862,3.8952,3.8974,3.8998,3.9017,3.8993,3.909,3.9098,3.9107,3.9139,3.9151,3.9008,3.9008,3.9008,3.9008,0,3.8438,3.8494,3.8535,3.8602,3.8641,3.87,3.8732,3.8769,3.8779,3.8805,3.8882,3.8925,3.8988,3.901,3.9019,3.9103,3.9094,3.9084,3.9058,3.9119,3.915,3.9162,3.9011,3.901,3.901,3.9009,0,0,3.8507,3.8588,3.8603,3.8635,3.8697,3.8742,3.8802,3.8865,3.8897,3.8945,3.8998,3.9078,3.9071,3.9106,3.9121,3.9162,3.9232,3.9148,3.915,3.9164,3.933,3.9338,3.9351,3.9233,3.9235,3.9237,3.9326,0,3.8582,3.8689,3.8712,3.8806,3.886,3.887,3.8923,3.8968,3.8995,3.9046,3.9075,3.9132,3.9117,3.9139,3.9181,3.9214,3.9265,3.9208,3.9284,3.9287,3.9272,3.9367,3.9374,3.9456,3.9338,3.934,3.9341,0,3.8682,3.8734,3.8833,3.8892,3.8916,3.8963,3.9024,3.9072,3.9124,3.9141,3.9183,3.9194,3.926,3.9231,3.9324,3.9285,3.9318,3.9339,3.9343,3.9352,3.9318,3.938,3.9482,3.9496,3.936,3.9358,3.9357,0,3.8726,3.8821,3.8893,3.892,3.8989,3.9023,3.9054,3.9104,3.9142,3.9195,3.922,3.9281,3.9314,3.9361,3.939,3.9365,3.9482,3.9454,3.9499,3.9499,3.9523,3.9522,3.9635,3.9542,3.9542,3.9542,3.9542,0,3.8807,3.8868,3.8915,3.8959,3.9029,3.9056,3.9125,3.9156,3.9201,3.9254,3.9265,3.9314,3.9348,3.9403,3.9426,3.9501,3.9515,3.9532,3.9538,3.9532,3.953,3.9555,3.955,3.9545,3.9545,3.9544,3.9543,0,3.8868,3.8901,3.8981,3.9041,3.9058,3.9107,3.916,3.9205,3.9233,3.9299,3.9317,3.9361,3.9427,3.946,3.954,3.9556,3.9642,3.9643,3.9624,3.9627,3.9671,3.9667,3.9805,3.9826,3.9718,3.9719,3.972,0,3.8918,3.8965,3.9032,3.9068,3.91,3.9157,3.9196,3.9226,3.9266,3.9332,3.937,3.9436,3.9491,3.9595,3.9636,3.9699,3.9703,3.9747,3.9712,3.9706,3.9706,3.9704,3.971,3.9753,3.9754,3.9755,3.9755,0,3.9004,3.902,3.9075,3.9137,3.9184,3.9234,3.9284,3.9313,3.9351,3.9396,3.9464,3.9506,3.9591,3.9657,3.9724,3.9757,3.9764,3.9766,3.9781,3.9776,3.9764,3.9774,3.9643,3.9763,3.9762,3.9762,3.9761,3.9761,3.9063,3.9107,3.9162,3.9224,3.9265,3.9312,3.9359,3.9394,3.9451,3.9522,3.9536,3.9609,3.9664,3.9755,3.9791,3.9849,3.984,3.9859,3.9865,3.987,3.9873,3.9754,3.9861,3.9861,3.9861,3.9861,3.986,0,3.9152,3.9189,3.9246,3.9316,3.9366,3.9368,3.9425,3.9467,3.953,3.9581,3.9636,3.9715,3.9781,3.9828,3.9896,3.9934,3.9939,3.9951,3.9949,3.9957,3.9876,3.9858,3.9946,3.9946,3.9946,3.9946,3.9946,3.9946,3.9205,3.9281,3.9303,3.9401,3.9437,3.9508,3.9541,3.9585,3.9627,3.9715,3.977,3.98,3.9851,3.9923,3.9985,3.9997,4.0022,4.0034,4.0047,3.9971,3.9962,3.9954,3.9937,4.0039,4.0039,4.0123,4.0124,4.0125]},{"header":{"parameterUnit":"m.s-1","parameterCategory":1,"la1":30.2991,"la2":30.254,"lo1":-89.0895,"lo2":-89.0444,"dy":0.0017,"dx":0.0017,"nx":28,"ny":28,"refTime":"2026-02-15T03:00:00:Z","depth":0,"parameterNumber":3,"parameterNumberName":"V-component_of_WINDS"},"data":[0,0,0,0,0,0,0,0,0,0,0,0,0,0,0,0,0,0,0,0,0,0,0,0,0,0,0,0,0,0,0,0,0,0,0,0,0,0,0,0,0,0,0,0,0,0,0,0,0,0,0,0,0,0,0,0,0,0,-6.1861,-6.1861,0,-6.1897,-6.1898,-6.1898,-6.1851,-6.185,-6.1848,-6.1846,-6.188,-6.1882,-6.1885,0,0,0,0,0,0,0,0,0,0,0,0,0,-6.1749,-6.1751,-6.1861,-6.1861,-6.1862,-6.1897,-6.1898,-6.1898,-6.1852,-6.185,-6.1848,-6.1846,-6.1879,-6.1882,-6.1885,0,0,0,0,0,0,0,0,0,0,0,0,0,-6.1792,-6.1752,-6.1861,-6.1843,-6.1842,-6.1897,-6.1898,-6.1899,-6.1852,-6.185,-6.1847,-6.1845,-6.1878,-6.1882,-6.1885,-6.1959,0,0,-6.1896,-6.1898,0,0,0,0,0,0,0,0,-6.179,-6.1797,-6.1845,-6.1844,-6.1843,-6.1867,-6.187,-6.1919,-6.1853,-6.1848,-6.1846,-6.1844,-6.1877,-6.1881,-6.1893,-6.196,-6.1962,-6.1897,-6.1899,-6.1901,-6.1902,0,0,0,0,0,0,0,-6.1787,-6.1795,-6.1875,-6.1846,-6.1845,-6.1832,-6.1836,-6.1879,-6.1876,-6.1848,-6.1845,-6.185,-6.1876,-6.189,-6.1894,-6.1962,-6.1897,-6.19,-6.1902,-6.1904,-6.2093,-6.2096,0,0,0,0,0,0,-6.1787,-6.1793,-6.1874,-6.1876,-6.181,-6.1837,-6.184,-6.1862,-6.1876,-6.1876,-6.1852,-6.1848,-6.1885,-6.1889,-6.1895,-6.1982,-6.1901,-6.1904,-6.1906,-6.209,-6.2094,-6.2097,0,0,0,0,0,0,-6.1784,-6.1794,-6.1873,-6.1834,-6.1843,-6.1841,-6.1866,-6.1864,-6.1878,-6.1879,-6.1878,-6.1867,-6.1883,-6.1889,-6.1944,-6.1983,-6.1906,-6.1909,-6.2087,-6.2091,-6.2095,-6.2158,0,0,0,0,0,0,-6.1781,-6.1794,-6.1822,-6.1835,-6.1845,-6.1922,-6.1868,-6.1867,-6.1885,-6.1879,-6.1892,-6.1892,-6.1881,-6.1939,-6.1948,-6.1987,-6.1912,-6.2083,-6.2089,-6.2094,-6.2153,-6.2164,-6.2174,0,0,0,0,0,-6.1777,-6.1837,-6.1824,-6.1834,-6.188,-6.1924,-6.193,-6.1918,-6.1888,-6.1916,-6.1917,-6.1891,-6.1978,-6.1945,-6.1954,-6.1995,-6.2081,-6.2087,-6.2094,-6.2148,-6.2162,-6.2174,0,0,0,0,0,0,-6.1826,-6.1838,-6.1823,-6.1889,-6.1906,-6.1916,-6.1951,-6.1933,-6.1958,-6.1951,-6.1934,-6.1938,-6.1996,-6.2001,-6.1964,-6.2068,-6.2024,-6.2033,-6.2062,-6.2075,-6.2086,-6.2083,-6.1915,0,0,0,0,0,-6.1845,-6.1881,-6.1889,-6.1946,-6.1956,-6.1952,-6.1971,-6.1961,-6.1977,-6.1984,-6.1989,-6.2005,-6.2036,-6.2056,-6.2084,-6.2154,-6.2156,-6.2187,-6.2197,-6.2206,-6.2213,-6.2251,-6.2265,-6.2118,-6.2118,-6.2117,0,0,-6.1883,-6.1895,-6.1918,-6.1956,-6.1968,-6.2005,-6.1958,-6.1999,-6.2026,-6.1989,-6.2041,-6.2046,-6.2063,-6.2126,-6.2153,-6.2131,-6.2255,-6.2214,-6.2221,-6.2224,-6.2259,-6.2273,-6.2286,-6.2122,-6.2121,-6.212,0,0,-6.1972,-6.1984,-6.2034,-6.2048,-6.2068,-6.2066,-6.2078,-6.2092,-6.2094,-6.2147,-6.2121,-6.2152,-6.2205,-6.2219,-6.2233,-6.233,-6.2308,-6.234,-6.2395,-6.2433,-6.2444,-6.2454,-6.2489,-6.2502,-6.2348,-6.2348,-6.2348,0,-6.2017,-6.2072,-6.2061,-6.2105,-6.2122,-6.2094,-6.2144,-6.2157,-6.2185,-6.2198,-6.2173,-6.2241,-6.225,-6.2316,-6.2341,-6.2353,-6.2366,-6.2338,-6.2444,-6.2454,-6.2463,-6.2496,-6.2509,-6.2351,-6.2351,-6.2351,-6.235,0,-6.2127,-6.2166,-6.2203,-6.2233,-6.2256,-6.2302,-6.2297,-6.2321,-6.231,-6.231,-6.2365,-6.2376,-6.2406,-6.2422,-6.241,-6.2487,-6.2473,-6.2447,-6.2402,-6.2481,-6.2512,-6.2525,-6.2357,-6.2356,-6.2354,-6.2354,0,0,-6.2244,-6.227,-6.2284,-6.2298,-6.232,-6.2349,-6.2395,-6.2427,-6.2448,-6.2469,-6.2506,-6.2554,-6.253,-6.2546,-6.2536,-6.2569,-6.2647,-6.2539,-6.2539,-6.2558,-6.2732,-6.2752,-6.2766,-6.2633,-6.2635,-6.2637,-6.2731,0,-6.2333,-6.2414,-6.2407,-6.2482,-6.2519,-6.2494,-6.2533,-6.2551,-6.2553,-6.2584,-6.2586,-6.262,-6.2586,-6.2596,-6.2628,-6.263,-6.2681,-6.2624,-6.2666,-6.2668,-6.2662,-6.2782,-6.2802,-6.289,-6.2743,-6.2745,-6.2746,0,-6.2447,-6.2475,-6.2555,-6.2573,-6.2588,-6.2624,-6.2654,-6.2684,-6.2703,-6.2703,-6.2723,-6.2708,-6.2753,-6.271,-6.2772,-6.2733,-6.2751,-6.2755,-6.2758,-6.276,-6.2711,-6.2788,-6.2918,-6.2931,-6.2765,-6.2764,-6.2762,0,-6.2525,-6.2582,-6.2638,-6.2651,-6.2674,-6.27,-6.271,-6.2727,-6.2748,-6.2774,-6.2787,-6.2817,-6.2833,-6.2857,-6.2851,-6.2819,-6.2915,-6.287,-6.2915,-6.2915,-6.2935,-6.2934,-6.307,-6.2948,-6.2948,-6.2947,-6.2947,0,-6.2625,-6.2675,-6.2674,-6.2708,-6.2764,-6.2755,-6.281,-6.2817,-6.2834,-6.2868,-6.2848,-6.2881,-6.2871,-6.2903,-6.2898,-6.2951,-6.2959,-6.2959,-6.2957,-6.2961,-6.296,-6.2971,-6.2964,-6.2951,-6.295,-6.2949,-6.2949,0,-6.2721,-6.2722,-6.2781,-6.2799,-6.2805,-6.2845,-6.286,-6.2892,-6.2894,-6.2939,-6.2948,-6.2951,-6.2988,-6.2985,-6.3026,-6.3023,-6.3089,-6.3079,-6.3082,-6.308,-6.3125,-6.3121,-6.3272,-6.3291,-6.3157,-6.3159,-6.316,0,-6.2784,-6.2822,-6.2845,-6.2868,-6.2881,-6.2918,-6.294,-6.2933,-6.2956,-6.2983,-6.3012,-6.3048,-6.3076,-6.3137,-6.3142,-6.3174,-6.3165,-6.3216,-6.3169,-6.3172,-6.3165,-6.3163,-6.3167,-6.3224,-6.3226,-6.3227,-6.3228,0,-6.2896,-6.2895,-6.2928,-6.2962,-6.299,-6.3015,-6.3039,-6.3058,-6.3055,-6.3082,-6.3121,-6.3143,-6.3187,-6.3223,-6.3254,-6.3263,-6.3245,-6.3243,-6.3255,-6.3258,-6.3259,-6.3259,-6.3107,-6.3239,-6.3238,-6.3237,-6.3237,-6.3236,-6.2976,-6.301,-6.3033,-6.307,-6.3088,-6.3112,-6.3143,-6.3151,-6.3184,-6.322,-6.3214,-6.3258,-6.3278,-6.3318,-6.3331,-6.3365,-6.3346,-6.3364,-6.3368,-6.3372,-6.3377,-6.3255,-6.337,-6.337,-6.337,-6.337,-6.3369,0,-6.3087,-6.3101,-6.3137,-6.3172,-6.3202,-6.3185,-6.3211,-6.3237,-6.3276,-6.3297,-6.3327,-6.3372,-6.3408,-6.3417,-6.3451,-6.3476,-6.3469,-6.3485,-6.3483,-6.3485,-6.3392,-6.3378,-6.3491,-6.3491,-6.3491,-6.3491,-6.3491,-6.3491,-6.3148,-6.3205,-6.3208,-6.3273,-6.3286,-6.3331,-6.3347,-6.3369,-6.3386,-6.3438,-6.3468,-6.3475,-6.3491,-6.3527,-6.3559,-6.356,-6.3573,-6.3593,-6.3591,-6.3504,-6.3492,-6.348,-6.3467,-6.3596,-6.3596,-6.3682,-6.3683,-6.3683]}]]